DW5868 Weather Reports


time (UTC)temp
F
wind
direction
speed
knots
gust
knots
rain 1hr
in
rain 24hr
in
rain mn
in
humidity
%
barometer
mb
20260903150017 50 256 5.2 12.2 0.00 0.00 0.00 36 1009.6
20260903144532 49 304 7.0 14.8 0.00 0.00 0.00 37 1009.3
20260903143015 48 287 6.1 16.5 0.00 0.00 0.00 37 1009.0
20260903140014 0 0.0 0.0 0.00 0.00 0.00 1008.3
20260903134509 0 0.0 0.0 0.00 0.00 0.00 1008.2
20260903133013 0 0.0 0.0 0.00 0.00 0.00 1008.2
20260903130059 0 0.0 0.0 0.00 0.00 0.00 1008.6
20260903124555 0 0.0 0.0 0.00 0.00 0.00 1008.9
20260903123054 0 0.0 0.0 0.00 0.00 0.00 1009.2
20260903120046 47 292 6.1 14.8 0.00 0.00 0.00 26 1010.0
20260903114548 47 308 4.3 12.2 0.00 0.00 0.00 27 1010.0
20260903113047 48 256 2.6 10.4 0.00 0.00 0.00 25 1010.2
20260903110045 48 275 3.5 8.7 0.00 0.00 0.00 30 1010.3
20260903104553 47 296 5.2 14.8 0.00 0.00 0.00 33 1010.2
20260903103042 48 267 6.1 11.3 0.00 0.00 0.00 32 1010.3
20260903100044 48 284 2.6 11.3 0.00 0.00 0.00 33 1010.2
20260903094536 48 231 6.1 12.2 0.00 0.00 0.00 34 1010.0
20260903093036 48 171 2.6 13.9 0.00 0.00 0.00 36 1010.2
20260903090033 48 280 5.2 13.0 0.00 0.00 0.00 40 1011.0
20260903084531 48 261 6.1 14.8 0.00 0.00 0.00 41 1011.0
20260903083028 48 313 3.5 13.9 0.00 0.00 0.00 43 1010.9
20260903080023 50 188 1.7 8.7 0.00 0.00 0.00 38 1010.4
20260903074520 50 234 2.6 11.3 0.00 0.00 0.00 38 1010.5
20260903073024 48 271 7.0 15.6 0.00 0.00 0.00 41 1010.2
20260903070017 47 264 4.3 15.6 0.00 0.00 0.00 48 1010.8
20260903064516 47 275 6.1 20.0 0.00 0.00 0.00 50 1011.2
20260903063017 47 277 6.1 19.1 0.00 0.00 0.00 49 1011.5
20260903060018 47 246 7.8 17.4 0.00 0.00 0.00 52 1011.7
20260903054520 47 273 7.0 12.2 0.00 0.00 0.00 54 1011.9
20260903053017 47 287 3.5 13.0 0.00 0.00 0.00 54 1012.1
20260903050017 46 257 6.1 13.0 0.00 0.00 0.00 58 1012.2
20260903044512 46 267 4.3 13.0 0.00 0.00 0.00 59 1012.1
20260903043016 45 261 4.3 12.2 0.00 0.00 0.00 60 1012.1
20260903040015 45 259 6.1 12.2 0.00 0.00 0.00 62 1012.1
20260903034512 46 250 3.5 9.6 0.00 0.00 0.00 61 1012.1
20260903033011 46 289 2.6 10.4 0.00 0.00 0.00 59 1012.1
20260903030019 47 250 0.0 6.1 0.00 0.00 0.00 56 1012.0
20260903024511 47 219 2.6 7.8 0.00 0.00 0.00 54 1011.8
20260903023010 48 205 0.9 8.7 0.00 0.00 0.00 52 1011.9
20260903020019 49 259 1.7 7.0 0.00 0.00 0.00 48 1011.6
20260903014507 50 283 4.3 13.9 0.00 0.00 0.00 47 1011.4
20260903013006 51 276 2.6 13.0 0.00 0.00 0.00 46 1011.5
20260903010008 54 267 2.6 12.2 0.00 0.00 0.00 41 1011.6
20260903004510 55 306 1.7 8.7 0.00 0.00 0.00 39 1011.5
20260903003006 56 287 1.7 7.8 0.00 0.00 0.00 40 1011.5
20260903000010 55 292 7.8 17.4 0.00 0.00 0.00 39 1011.7
20260902234508 54 286 6.1 20.9 0.00 0.00 0.00 40 1011.8
20260902233004 55 276 6.1 16.5 0.00 0.00 0.00 40 1011.7
20260902230010 55 279 6.1 20.9 0.00 0.00 0.00 40 1011.4
20260902224510 57 267 1.7 12.2 0.00 0.00 0.00 41 1011.5
20260902223019 57 242 4.3 12.2 0.00 0.00 0.00 39 1011.5
20260902220003 57 254 4.3 9.6 0.00 0.00 0.00 39 1011.5
20260902214506 56 243 3.5 14.8 0.00 0.00 0.00 39 1011.6
20260902213002 57 255 6.1 22.6 0.00 0.00 0.00 38 1011.5
20260902210004 56 218 6.1 17.4 0.00 0.00 0.00 39 1011.4
20260902204600 56 253 1.7 27.8 0.00 0.00 0.00 40 1011.3
20260902203059 55 305 4.3 20.9 0.00 0.00 0.00 41 1011.3
20260902200058 55 140 7.0 20.0 0.00 0.00 0.00 39 1011.3
20260902194557 55 281 4.3 10.4 0.00 0.00 0.00 39 1011.4
20260902193058 54 117 4.3 15.6 0.00 0.00 0.00 40 1011.1
20260902190054 55 276 5.2 18.2 0.00 0.00 0.00 39 1011.3
20260902184553 55 295 6.1 14.8 0.00 0.00 0.00 37 1011.1
20260902183102 54 278 7.0 16.5 0.00 0.00 0.00 37 1010.9
20260902180057 56 15 3.5 13.0 0.00 0.00 0.00 35 1011.1
20260902174558 56 263 2.6 9.6 0.00 0.00 0.00 35 1011.1
20260902173114 55 276 1.7 13.9 0.00 0.00 0.00 37 1010.8
20260902170040 51 297 2.6 13.0 0.00 0.00 0.00 42 1010.9
20260902164539 50 302 6.1 13.9 0.00 0.00 0.00 41 1010.7
20260902163038 50 275 2.6 13.0 0.00 0.00 0.00 42 1010.8
20260902160049 45 221 7.0 18.2 0.00 0.00 0.00 45 1010.8
20260902154542 46 289 7.0 23.5 0.00 0.00 0.00 43 1010.7
20260902153038 46 275 4.3 15.6 0.00 0.00 0.00 43 1010.4